Эсенгулы

Туркменистан     37°28′04″N   53°58′36″E
В апреле 2022 года жителям России запретили посещать сайт meteo.paraplan.net по решению Генеральной прокуратуры. Аудитория сайта уменьшилась в 10 раз. Владельцы сайта не видят смысла в поддержке погодного сервера в таких условиях. Сайт будет закрыт в октябре.
темп.,
°C
ветер,
м/с
пор.,
м/с
влажн.,
%
обл.,
%
осадки,
мм/ч
давл.,
гПа
погр.,
м
29 сентября, чт
чт2923:00+26ссз34530 0.0 100587
02:00+25ссв33510 0.0 100532
05:00+24сз33470 0.0 100523
08:00+24зсз22620 0.0 100628
11:00+28зсз33380 0.0 1007368
14:00+30з64300 0.0 1007478
17:00+28зсз55350 0.0 1008367
20:00+25зсз45580 0.0 1009257
30 сентября, пт
пт3023:00+24сз35710 0.0 1010178
02:00+23зсз34780 0.0 1011111
05:00+23з45825 0.0 1013144
08:00+24зюз467958 0.0 1015338
11:00+25з567397 0.1 1016724
14:00+27з66612 0.1 1016961
17:00+25з66630 0.1 1015902
20:00+24зюз46670 0.0 1017801
1 октября, сб
сб123:00+24зюз34690 0.0 1017297
02:00+23зюз23710 0.0 1017104
05:00+22зюз23710 0.0 1017103
08:00+23юз23690 0.0 1018122
11:00+25зюз44550 0.0 10191117
14:00+27зюз44480 0.0 10181178
17:00+26зюз43500 0.0 1017947
20:00+24зюз33610 0.0 1018459
2 октября, вс
вс223:00+23зюз34650 0.0 1018216
02:00+23з23700 0.0 101796
05:00+22зюз34781 0.1 1017130
08:00+22зюз34746 0.0 1018179
11:00+25з336221 0.1 10181065
14:00+26з425518 0.0 10161310
17:00+25з53561 0.0 1015585
20:00+24з44410 0.0 1014204
3 октября, пн
пн323:00+23ссз23390 0.0 101490
02:00+21св34280 0.0 101362
05:00+20всв22310 0.0 101236
08:00+18св34220 0.0 101272
11:00+24св33181 0.0 1012377
14:00+29св44195 0.0 1010885
17:00+30св44175 0.0 1009996
20:00+27св45195 0.0 100949